Weather History for KCQM - February, 2012

Change the Weather History Date:

Thursday, February 16, 2012

  Actual Average Record
Temperature  
Mean Temperature 28 °F -  
Max Temperature 30 °F 24 °F 57 °F (2011)
Min Temperature 26 °F 2 °F -36 °F (1997)
Degree Days  
Heating Degree Days 37    
Moisture  
Dew Point 24 °F    
Average Humidity 85    
Maximum Humidity 93    
Minimum Humidity 69    
Precipitation  
Precipitation 0.00 in - - ()
Sea Level Pressure  
Sea Level Pressure 29.92 in    
Wind  
Wind Speed 7 mph (West)    
Max Wind Speed 12 mph    
Max Gust Speed 17 mph    
Visibility 9 miles    
Events Snow    
Averages and records for this station are not official NWS values.
T = Trace of Precipitation, MM = Missing Value Source: NWS Daily Summary

Daily Weather History Graph

Daily Weather History Graph

Search for Another Location

Airport or City:

Trip Planner

Search our weather history database for the weather conditions in past years. The results will help you decide how hot, cold, wet, or windy it might be!

Date:

Astronomy

Feb. 16, 2012 Rise Set
Actual Time 7:15 AM CST 5:34 PM CST
Civil Twilight 6:44 AM CST 6:06 PM CST
Nautical Twilight 6:07 AM CST 6:42 PM CST
Astronomical Twilight 5:32 AM CST 7:18 PM CST
Moon 3:27 AM CST (2/16) 12:11 PM CST (2/16)
Length of Visible Light 11h 22m
Length of Day
10h 18m
Waning Crescent, 28% of the Moon is Illuminated
Feb 16
Waning Crescent
Feb 21
New
Feb 29
First Quarter
Mar 8
Full
Mar 14
Last Quarter

Hourly Weather History & Observations

Time (CST) Temp. Windchill Dew Point Humidity Pressure Visibility Wind Dir Wind Speed Gust Speed Precip Events Conditions
12:37 AM 30.2 °F 23.4 °F 28.4 °F 93% 29.90 in 10.0 mi WSW 6.9 mph - N/A   Overcast
12:56 AM 30.2 °F 24.3 °F 26.6 °F 86% 29.90 in 10.0 mi WSW 5.8 mph - N/A   Overcast
1:17 AM 30.2 °F 26.7 °F 26.6 °F 86% 29.89 in 10.0 mi SW 3.5 mph - N/A   Overcast
1:36 AM 30.2 °F 25.4 °F 26.6 °F 86% 29.89 in 10.0 mi WSW 4.6 mph - N/A   Overcast
2:17 AM 28.4 °F 23.3 °F 26.6 °F 93% 29.89 in 10.0 mi WSW 4.6 mph - N/A Snow Light Snow
2:37 AM 28.4 °F 22.2 °F 26.6 °F 93% 29.89 in 10.0 mi WSW 5.8 mph - N/A Snow Light Snow
2:56 AM 28.4 °F 21.2 °F 26.6 °F 93% 29.89 in 10.0 mi WSW 6.9 mph - N/A Snow Light Snow
3:17 AM 28.4 °F 21.2 °F 26.6 °F 93% 29.88 in 10.0 mi WSW 6.9 mph - N/A Snow Light Snow
3:36 AM 28.4 °F 20.4 °F 26.6 °F 93% 29.88 in 10.0 mi WSW 8.1 mph - N/A   Overcast
3:56 AM 28.4 °F 19.1 °F 26.6 °F 93% 29.88 in 10.0 mi West 10.4 mph - N/A   Overcast
4:17 AM 28.4 °F 20.4 °F 24.8 °F 86% 29.89 in 10.0 mi West 8.1 mph - N/A   Overcast
4:37 AM 28.4 °F 21.2 °F 24.8 °F 86% 29.89 in 10.0 mi West 6.9 mph - N/A   Overcast
4:56 AM 26.6 °F 20.0 °F 24.8 °F 93% 29.89 in 10.0 mi West 5.8 mph - N/A   Overcast
5:17 AM 28.4 °F 21.2 °F 24.8 °F 86% 29.89 in 10.0 mi West 6.9 mph - N/A   Overcast
5:37 AM 26.6 °F 20.0 °F 24.8 °F 93% 29.89 in 10.0 mi West 5.8 mph - N/A   Overcast
5:56 AM 28.4 °F 20.4 °F 24.8 °F 86% 29.89 in 10.0 mi WSW 8.1 mph - N/A Snow Light Snow
6:17 AM 28.4 °F 21.2 °F 24.8 °F 86% 29.89 in 10.0 mi WSW 6.9 mph - N/A   Overcast
6:37 AM 26.6 °F 19.1 °F 24.8 °F 93% 29.89 in 10.0 mi WSW 6.9 mph - N/A Snow Light Snow
6:56 AM 26.6 °F 21.2 °F 24.8 °F 93% 29.89 in 10.0 mi WSW 4.6 mph - N/A   Overcast
7:17 AM 26.6 °F 19.1 °F 24.8 °F 93% 29.90 in 10.0 mi WSW 6.9 mph - N/A   Overcast
7:36 AM 26.6 °F 17.5 °F 24.8 °F 93% 29.90 in 10.0 mi WSW 9.2 mph - N/A   Overcast
7:56 AM 26.6 °F 17.5 °F 24.8 °F 93% 29.90 in 4.0 mi WSW 9.2 mph - N/A Snow Light Snow
8:16 AM 26.6 °F 18.2 °F 24.8 °F 93% 29.91 in 5.0 mi WSW 8.1 mph - N/A Snow Light Snow
8:36 AM 26.6 °F 17.5 °F 24.8 °F 93% 29.91 in 2.0 mi WSW 9.2 mph - N/A Snow Light Snow
8:57 AM 26.6 °F 17.5 °F 24.8 °F 93% 29.91 in 5.0 mi West 9.2 mph - N/A Snow Light Snow
9:16 AM 26.6 °F 17.5 °F 24.8 °F 93% 29.92 in 4.0 mi West 9.2 mph - N/A Snow Light Snow
9:36 AM 26.6 °F 16.2 °F 24.8 °F 93% 29.92 in 10.0 mi West 11.5 mph - N/A Snow Light Snow
9:57 AM 28.4 °F 20.4 °F 24.8 °F 86% 29.92 in 4.0 mi West 8.1 mph - N/A Snow Light Snow
10:16 AM 28.4 °F 19.7 °F 24.8 °F 86% 29.93 in 4.0 mi West 9.2 mph 16.1 mph N/A Snow Light Snow
10:36 AM 28.4 °F 19.1 °F 24.8 °F 86% 29.93 in 5.0 mi West 10.4 mph - N/A Snow Light Snow
11:16 AM 28.4 °F 20.4 °F 24.8 °F 86% 29.94 in 10.0 mi WNW 8.1 mph - N/A   Overcast
11:36 AM 26.6 °F 18.2 °F 24.8 °F 93% 29.94 in 10.0 mi WNW 8.1 mph 17.3 mph N/A   Overcast
11:57 AM 26.6 °F 16.2 °F 23.0 °F 86% 29.94 in 10.0 mi West 11.5 mph - N/A   Overcast
12:16 PM 26.6 °F 18.2 °F 23.0 °F 86% 29.94 in 10.0 mi WNW 8.1 mph - N/A   Overcast
12:36 PM 26.6 °F 17.5 °F 23.0 °F 86% 29.94 in 10.0 mi West 9.2 mph - N/A   Overcast
12:57 PM 28.4 °F 20.4 °F 23.0 °F 80% 29.94 in 10.0 mi West 8.1 mph - N/A   Overcast
1:16 PM 28.4 °F 20.4 °F 23.0 °F 80% 29.94 in 10.0 mi West 8.1 mph - N/A   Overcast
1:36 PM 28.4 °F 19.7 °F 23.0 °F 80% 29.94 in 10.0 mi West 9.2 mph - N/A   Overcast
1:57 PM 28.4 °F 19.7 °F 23.0 °F 80% 29.95 in 10.0 mi West 9.2 mph - N/A   Overcast
2:16 PM 28.4 °F 19.7 °F 23.0 °F 80% 29.94 in 10.0 mi West 9.2 mph - N/A   Overcast
2:36 PM 28.4 °F 18.5 °F 23.0 °F 80% 29.95 in 10.0 mi West 11.5 mph - N/A   Overcast
2:57 PM 28.4 °F 19.7 °F 19.4 °F 69% 29.95 in 10.0 mi West 9.2 mph - N/A   Overcast
3:16 PM 28.4 °F 19.1 °F 21.2 °F 74% 29.94 in 10.0 mi West 10.4 mph - N/A   Overcast
3:36 PM 28.4 °F 20.4 °F 21.2 °F 74% 29.95 in 10.0 mi West 8.1 mph - N/A   Overcast
3:57 PM 28.4 °F 20.4 °F 21.2 °F 74% 29.95 in 10.0 mi West 8.1 mph - N/A   Overcast
4:16 PM 28.4 °F 19.7 °F 21.2 °F 74% 29.95 in 10.0 mi West 9.2 mph - N/A   Overcast
4:36 PM 28.4 °F 21.2 °F 21.2 °F 74% 29.95 in 10.0 mi West 6.9 mph - N/A   Mostly Cloudy
5:16 PM 28.4 °F 24.6 °F 21.2 °F 74% 29.95 in 10.0 mi West 3.5 mph - N/A   Overcast
5:36 PM 28.4 °F 24.6 °F 21.2 °F 74% 29.96 in 10.0 mi West 3.5 mph - N/A   Overcast
6:16 PM 28.4 °F 24.6 °F 21.2 °F 74% 29.96 in 10.0 mi WSW 3.5 mph - N/A   Overcast
6:36 PM 28.4 °F 24.6 °F 21.2 °F 74% 29.96 in 10.0 mi WSW 3.5 mph - N/A   Overcast
6:57 PM 28.4 °F - 21.2 °F 74% 29.96 in 10.0 mi Calm Calm - N/A   Overcast
7:16 PM 26.6 °F - 21.2 °F 80% 29.96 in 10.0 mi Calm Calm - N/A   Overcast
7:37 PM 26.6 °F - 21.2 °F 80% 29.96 in 10.0 mi Calm Calm - N/A   Overcast
7:56 PM 26.6 °F 22.6 °F 21.2 °F 80% 29.96 in 10.0 mi WSW 3.5 mph - N/A   Overcast
8:37 PM 26.6 °F 22.6 °F 21.2 °F 80% 29.96 in 10.0 mi WSW 3.5 mph - N/A   Overcast
8:56 PM 26.6 °F 22.6 °F 19.4 °F 74% 29.96 in 10.0 mi WSW 3.5 mph - N/A   Overcast
9:16 PM 26.6 °F - 21.2 °F 80% 29.96 in 10.0 mi Calm Calm - N/A   Overcast
9:37 PM 26.6 °F 22.6 °F 19.4 °F 74% 29.96 in 10.0 mi WSW 3.5 mph - N/A   Overcast
9:56 PM 26.6 °F - 19.4 °F 74% 29.96 in 10.0 mi Calm Calm - N/A   Overcast
10:16 PM 24.8 °F - 19.4 °F 80% 29.95 in 10.0 mi Calm Calm - N/A   Overcast
10:37 PM 24.8 °F - 19.4 °F 80% 29.95 in 10.0 mi Calm Calm - N/A   Overcast
10:56 PM 24.8 °F - 19.4 °F 80% 29.95 in 10.0 mi Calm Calm - N/A   Overcast
11:16 PM 24.8 °F - 19.4 °F 80% 29.95 in 10.0 mi Calm Calm - N/A   Overcast
11:37 PM 24.8 °F - 19.4 °F 80% 29.94 in 10.0 mi Calm Calm - N/A   Overcast
11:56 PM 24.8 °F - 19.4 °F 80% 29.95 in 10.0 mi Calm Calm - N/A   Overcast